User: anonymous   Login
Location: Vancouver
(49.2500°N, 123.1330°W)
Time: 14:58:31
(UTC-07:00)
Language:

S-56A Canister/Altair - Orbit

View from above orbital plane
View from above orbital plane
View from above satellite
View from above satellite

Ground track
Ground track

The orbit data is extracted from the following two-line orbital elements,

1    82U 61004B   18114.70998670 +.00000109 +00000-0 +11255-3 0  9999
2    82 038.8633 224.0128 1176249 256.4664 090.2544 12.25942031711490
Epoch (UTC): 24 April 2018 17:02:22
Eccentricity: 0.1176249
inclination: 38.8633°
perigee height: 632 km
apogee height: 2501 km
right ascension of ascending node: 224.0128°
argument of perigee: 256.4664°
revolutions per day: 12.25942031
mean anomaly at epoch: 90.2544°
orbit number at epoch: 71149

The dashed part of the orbit path shows where the satellite is in the earth's shadow,  

DLR